Regional Weather Roundup
Issued by NWS

Home | Current Version | Previous Version | Graphics & Text | Print | Product List | Glossary On
Versions: 1 2 3 4 5 6 7 8 9 10 11 12 13 14 15 16 17 18 19 20 21 22 23 24 25 26 27 28 29 30 31 32 33 34 35 36 37 38 39 40 41 42 43 44 45 46 47 48 49 50
354
ASUS44 KJAN 280410
RWRMS

MISSISSIPPI HOURLY WEATHER ROUNDUP
NATIONAL WEATHER SERVICE JACKSON MS
1000 PM CST THU NOV 27 2014

NOTE: "FAIR: INDICATES FEW OR NO CLOUDS BELOW 12,000 FEET WITH NO
SIGNIFICANT WEATHER AND/OR OBSTRUCTIONS TO VISIBILITY.

MSZ001>002-007>008-010>013-018>021-025>028-034>036-280500-
NORTHWEST MISSISSIPPI

CITY           SKY/WX    TMP DP  RH WIND       PRES   REMARKS
CLARKSDALE     FAIR      34  32  93 CALM      30.49S
CLEVELAND      FAIR      35  33  91 CALM      30.48S
GREENWOOD      CLEAR     30  27  88 NE6       30.49S WCI  24
GREENVILLE     CLEAR     34  31  88 CALM      30.48S
GRENADA        FAIR      30  28  93 CALM      30.49S
OLIVE BRANCH   CLEAR     32  32 100 CALM      30.47S
OXFORD         FAIR      30  27  86 CALM      30.48F
TUNICA         CLEAR     34  32  93 CALM      30.49S
$$

MSZ003>006-009-014>017-022>024-029>033-037>039-280500-
NORTHEAST MISSISSIPPI

CITY           SKY/WX    TMP DP  RH WIND       PRES   REMARKS
COLUMBUS AFB   CLEAR     29  26  90 CALM      30.48F
CORINTH        FAIR      32  25  74 CALM      30.48S
GOLDN TRIANGLE CLEAR     32  27  80 NE5       30.46F WCI  27
STARKVILLE       N/A     28  28 100 CALM      30.48S
TUPELO         CLEAR     32  27  81 E7        30.48F WCI  26
$$

MSZ040-058-280500-
CENTRAL MISSISSIPPI

CITY           SKY/WX    TMP DP  RH WIND       PRES   REMARKS
JACKSON INTL   CLEAR     34  30  85 CALM      30.47S
JACKSON HAWKNS CLEAR     35  30  82 NW3       30.47S
MERIDIAN KEY   CLEAR     31  29  92 NW3       30.47S
MERIDIAN NAS   CLEAR     31  29  92 NW3       30.48R
RAYMOND        FAIR      32  27  80 MISG      30.48S
VICKSBURG      CLEAR     31  29  92 CALM      30.49F
$$

MSZ059>079-280500-
SOUTH MISSISSIPPI

CITY           SKY/WX    TMP DP  RH WIND       PRES   REMARKS
BROOKHAVEN     FAIR      36  32  87 CALM      30.48S
HATTIESBURG    CLEAR     36  33  89 CALM      30.46R
MCCOMB         CLEAR     42  30  62 N5        30.46R
NATCHEZ        CLEAR     36  30  80 CALM      30.48S
PINE BELT      CLEAR     37  28  70 MISG      30.45S
$$

MSZ080>082-280500-
COASTAL MISSISSIPPI

CITY           SKY/WX    TMP DP  RH WIND       PRES   REMARKS
BILOXI         CLEAR     44  34  68 VRB2      30.45S
PASCAGOULA     CLEAR     39  32  76 CALM      30.45S
GULFPORT       CLEAR     43  33  68 N6        30.44F
$$



USA.gov is the U.S. government's official web portal to all federal, state and local government web resources and services.